[[{"header":{"parameterUnit":"m.s-1","parameterCategory":1,"la1":30.2991,"la2":30.254,"lo1":-89.0895,"lo2":-89.0444,"dy":0.0017,"dx":0.0017,"nx":28,"ny":28,"refTime":"2024-07-10T09:00:00:Z","depth":0,"parameterNumber":2,"parameterNumberName":"U-component_of_WINDS"},"data":[0,0,0,0,0,0,0,0,0,0,0,0,0,0,0,0,0,0,0,0,0,0,0,0,0,0,0,0,0,0,0,0,0,0,0,0,0,0,0,0,0,0,0,0,0,0,0,0,0,0,0,0,0,0,0,0,0,0,1.7847,1.7848,0,1.7889,1.789,1.789,1.7861,1.786,1.7858,1.7857,1.79,1.7902,1.7904,0,0,0,0,0,0,0,0,0,0,0,0,0,1.7741,1.7743,1.7847,1.7848,1.7848,1.7889,1.789,1.789,1.7861,1.786,1.7858,1.7856,1.7899,1.7902,1.7905,0,0,0,0,0,0,0,0,0,0,0,0,0,1.7785,1.7744,1.7847,1.7839,1.7838,1.7889,1.789,1.789,1.7861,1.7859,1.7858,1.7856,1.7898,1.7901,1.7905,1.7966,0,0,1.7916,1.7917,0,0,0,0,0,0,0,0,1.7783,1.7789,1.784,1.7839,1.7839,1.7868,1.7868,1.7916,1.7862,1.7853,1.7857,1.7855,1.7891,1.7895,1.7907,1.7968,1.797,1.7916,1.7918,1.792,1.7921,0,0,0,0,0,0,0,1.778,1.7787,1.7864,1.784,1.784,1.7832,1.7837,1.7877,1.7882,1.7853,1.7851,1.7857,1.789,1.7903,1.7908,1.797,1.7916,1.7919,1.7921,1.7923,1.8081,1.8083,0,0,0,0,0,0,1.7778,1.7785,1.7863,1.7865,1.7806,1.7836,1.7841,1.7861,1.7882,1.7883,1.7858,1.7855,1.7898,1.7904,1.7909,1.798,1.792,1.7923,1.7925,1.8079,1.8082,1.8084,0,0,0,0,0,0,1.7776,1.7785,1.7861,1.7825,1.7834,1.784,1.7863,1.7862,1.7876,1.7885,1.7886,1.7871,1.7897,1.7904,1.7951,1.7981,1.7925,1.7928,1.8077,1.808,1.8083,1.8124,0,0,0,0,0,0,1.7773,1.7784,1.7808,1.7825,1.7836,1.7903,1.7864,1.7865,1.7882,1.7878,1.7897,1.7899,1.7896,1.7946,1.7955,1.7985,1.7931,1.8074,1.8078,1.8082,1.812,1.8128,1.8135,0,0,0,0,0,1.7769,1.7818,1.7809,1.7819,1.7865,1.7905,1.7911,1.7907,1.7884,1.7908,1.7914,1.7898,1.7977,1.7951,1.7961,1.7992,1.8072,1.8077,1.8082,1.8116,1.8126,1.8135,0,0,0,0,0,0,1.7805,1.782,1.7811,1.7867,1.7885,1.79,1.7929,1.7918,1.7942,1.7938,1.7931,1.7936,1.7985,1.7994,1.7965,1.8051,1.8021,1.8028,1.8044,1.8054,1.8061,1.8057,1.7933,0,0,0,0,0,1.7819,1.785,1.7862,1.7911,1.792,1.7923,1.7941,1.7936,1.7954,1.7961,1.7971,1.7989,1.8017,1.8036,1.8063,1.8121,1.8124,1.8147,1.8155,1.8161,1.8167,1.8196,1.8206,1.8099,1.8099,1.8099,0,0,1.7849,1.7862,1.7882,1.7918,1.7932,1.7963,1.793,1.7965,1.7988,1.7966,1.8011,1.8019,1.8038,1.8091,1.8115,1.8099,1.8197,1.8167,1.8172,1.8174,1.8202,1.8212,1.8221,1.8103,1.8102,1.8102,0,0,1.792,1.7934,1.7974,1.7988,1.8008,1.801,1.8019,1.8036,1.804,1.8085,1.8069,1.8096,1.8146,1.8159,1.8173,1.8247,1.8233,1.8257,1.8296,1.8324,1.8333,1.834,1.8365,1.8374,1.8262,1.8262,1.8263,0,1.7955,1.8002,1.7997,1.8033,1.8049,1.803,1.8071,1.8084,1.8112,1.8123,1.8106,1.8167,1.8179,1.8233,1.8251,1.8263,1.8273,1.8254,1.8332,1.8339,1.8346,1.837,1.8379,1.8265,1.8265,1.8264,1.8264,0,1.8043,1.8076,1.8107,1.8133,1.8153,1.8191,1.8191,1.8211,1.8204,1.8207,1.8252,1.8266,1.8294,1.8307,1.8301,1.836,1.835,1.8333,1.8302,1.8359,1.8381,1.839,1.8269,1.8268,1.8267,1.8266,0,0,1.8138,1.816,1.8172,1.8182,1.8203,1.8228,1.8264,1.8292,1.8308,1.8328,1.8358,1.84,1.8383,1.8398,1.8394,1.8419,1.8475,1.8398,1.8399,1.8411,1.8539,1.8551,1.8561,1.8466,1.8468,1.8469,1.8537,0,1.8208,1.8272,1.8268,1.8328,1.8357,1.834,1.8371,1.8387,1.839,1.8415,1.8419,1.8448,1.8425,1.8434,1.8458,1.8463,1.85,1.8458,1.8493,1.8494,1.8487,1.8573,1.8586,1.8649,1.8545,1.8547,1.8548,0,1.8299,1.8321,1.8384,1.8398,1.841,1.8439,1.8462,1.8487,1.8503,1.8504,1.8521,1.8511,1.8547,1.8516,1.8565,1.8536,1.855,1.8554,1.8557,1.8559,1.8523,1.8576,1.8669,1.8678,1.8562,1.8561,1.856,0,1.836,1.8405,1.8448,1.8458,1.8476,1.8496,1.8505,1.8519,1.8535,1.8556,1.8566,1.8591,1.8605,1.8624,1.8621,1.8599,1.867,1.8639,1.8671,1.8671,1.8686,1.8685,1.8781,1.8697,1.8697,1.8697,1.8697,0,1.8438,1.8477,1.8475,1.8501,1.8543,1.8538,1.858,1.8586,1.8599,1.8625,1.8612,1.8636,1.8632,1.8657,1.8655,1.8695,1.8701,1.8702,1.8701,1.8702,1.8702,1.871,1.8705,1.8699,1.8699,1.8698,1.8698,0,1.8512,1.8513,1.8558,1.8571,1.8575,1.8605,1.8616,1.864,1.8643,1.8676,1.8683,1.8687,1.8715,1.8714,1.8747,1.8746,1.8794,1.8788,1.8788,1.8786,1.8817,1.8814,1.8921,1.8934,1.8843,1.8844,1.8845,0,1.8561,1.8591,1.8606,1.8623,1.8632,1.8659,1.8675,1.8671,1.8688,1.8708,1.873,1.8757,1.8778,1.8823,1.8828,1.8853,1.8847,1.8883,1.885,1.885,1.8845,1.8843,1.8845,1.8889,1.889,1.8891,1.8891,0,1.8648,1.8647,1.867,1.8694,1.8713,1.8732,1.8749,1.8763,1.876,1.878,1.8808,1.8825,1.8857,1.8883,1.8906,1.8914,1.8902,1.8902,1.891,1.8911,1.8909,1.8909,1.8803,1.8899,1.8898,1.8898,1.8897,1.8897,1.871,1.8734,1.8749,1.8775,1.8787,1.8803,1.8826,1.883,1.8854,1.888,1.8876,1.8907,1.8921,1.8951,1.8961,1.8984,1.8972,1.8984,1.8987,1.899,1.8992,1.8906,1.8989,1.8989,1.8989,1.8988,1.8988,0,1.8794,1.8802,1.8827,1.885,1.8871,1.8858,1.8875,1.8893,1.8921,1.8935,1.8956,1.8987,1.9013,1.9019,1.9043,1.9061,1.9056,1.9067,1.9065,1.9067,1.9003,1.8993,1.9071,1.9071,1.9071,1.9071,1.9071,1.9071,1.884,1.888,1.888,1.8925,1.8933,1.8963,1.8974,1.8988,1.8999,1.9035,1.9056,1.906,1.9071,1.9095,1.9117,1.9118,1.9127,1.9141,1.9139,1.908,1.9072,1.9064,1.9054,1.9143,1.9143,1.9201,1.9201,1.9202]},{"header":{"parameterUnit":"m.s-1","parameterCategory":1,"la1":30.2991,"la2":30.254,"lo1":-89.0895,"lo2":-89.0444,"dy":0.0017,"dx":0.0017,"nx":28,"ny":28,"refTime":"2024-07-10T09:00:00:Z","depth":0,"parameterNumber":3,"parameterNumberName":"V-component_of_WINDS"},"data":[0,0,0,0,0,0,0,0,0,0,0,0,0,0,0,0,0,0,0,0,0,0,0,0,0,0,0,0,0,0,0,0,0,0,0,0,0,0,0,0,0,0,0,0,0,0,0,0,0,0,0,0,0,0,0,0,0,0,2.151,2.151,0,2.1496,2.1496,2.1496,2.1475,2.1475,2.1475,2.1474,2.146,2.146,2.146,0,0,0,0,0,0,0,0,0,0,0,0,0,2.1517,2.1517,2.151,2.151,2.151,2.1496,2.1496,2.1496,2.1475,2.1475,2.1474,2.1474,2.146,2.146,2.146,0,0,0,0,0,0,0,0,0,0,0,0,0,2.151,2.1517,2.151,2.1498,2.1496,2.1496,2.1496,2.1496,2.1475,2.1475,2.1474,2.1474,2.146,2.146,2.146,2.147,0,0,2.146,2.1459,0,0,0,0,0,0,0,0,2.151,2.1509,2.15,2.1499,2.1497,2.1487,2.1493,2.1487,2.1476,2.1483,2.1474,2.1474,2.1469,2.1468,2.1467,2.147,2.1469,2.146,2.1459,2.1459,2.1459,0,0,0,0,0,0,0,2.1511,2.151,2.1505,2.15,2.1498,2.1493,2.1491,2.1492,2.148,2.1483,2.1481,2.148,2.1468,2.1467,2.1467,2.1469,2.146,2.1459,2.1459,2.1459,2.1478,2.1479,0,0,0,0,0,0,2.1513,2.151,2.1505,2.1504,2.1502,2.1493,2.1491,2.1491,2.148,2.1477,2.148,2.1479,2.1468,2.1467,2.1466,2.1477,2.1459,2.1459,2.1459,2.1478,2.1479,2.1479,0,0,0,0,0,0,2.1513,2.1513,2.1506,2.1507,2.1506,2.1493,2.1493,2.1491,2.1489,2.1478,2.1475,2.1481,2.1467,2.1466,2.1469,2.1476,2.1459,2.1459,2.1477,2.1478,2.1479,2.1499,0,0,0,0,0,0,2.1514,2.1513,2.1517,2.1507,2.1506,2.1509,2.1494,2.1491,2.149,2.1488,2.1478,2.1476,2.1467,2.1469,2.1469,2.1476,2.1459,2.1477,2.1478,2.1479,2.1498,2.1501,2.1503,0,0,0,0,0,2.1514,2.1524,2.1518,2.1517,2.1511,2.151,2.1509,2.1498,2.149,2.1494,2.1486,2.1476,2.1476,2.147,2.1469,2.1476,2.1476,2.1477,2.1478,2.1497,2.15,2.1503,0,0,0,0,0,0,2.1535,2.1522,2.1515,2.1522,2.1517,2.1506,2.1511,2.1502,2.1499,2.1498,2.1484,2.1482,2.1487,2.1482,2.1476,2.1485,2.1474,2.1475,2.1488,2.1491,2.1494,2.1495,2.1459,0,0,0,0,0,2.1541,2.1541,2.153,2.1537,2.1535,2.1524,2.1523,2.1515,2.1509,2.1507,2.1499,2.1494,2.1492,2.1492,2.149,2.1497,2.1494,2.1502,2.1504,2.1506,2.1507,2.151,2.1513,2.1483,2.1483,2.1483,0,0,2.1552,2.1545,2.1546,2.1541,2.1536,2.1537,2.1522,2.1523,2.1523,2.1507,2.1509,2.1504,2.1497,2.1502,2.1504,2.1498,2.1515,2.1508,2.151,2.1509,2.1511,2.1514,2.1517,2.1484,2.1484,2.1484,0,0,2.1572,2.1568,2.1573,2.1568,2.1561,2.1553,2.1554,2.1545,2.154,2.1543,2.153,2.153,2.1528,2.1523,2.152,2.1538,2.1528,2.1538,2.1551,2.1554,2.1556,2.1558,2.1563,2.1566,2.1539,2.1539,2.1539,0,2.1587,2.1588,2.1576,2.1578,2.1576,2.1561,2.1566,2.1562,2.1554,2.1553,2.1547,2.1543,2.1537,2.154,2.1545,2.1543,2.1544,2.1539,2.1557,2.1558,2.156,2.1565,2.1567,2.154,2.154,2.154,2.154,0,2.1606,2.1607,2.1611,2.1604,2.1603,2.1606,2.1595,2.1594,2.1586,2.1579,2.1581,2.1573,2.1569,2.1569,2.1562,2.1571,2.1568,2.1559,2.1548,2.1564,2.1569,2.1571,2.1542,2.1541,2.1541,2.1541,0,0,2.164,2.1626,2.1628,2.1624,2.1615,2.1615,2.1617,2.1613,2.1613,2.1608,2.1609,2.1607,2.1599,2.1596,2.1587,2.159,2.1603,2.1581,2.158,2.1584,2.1612,2.1618,2.1621,2.1597,2.1597,2.1597,2.1612,0,2.1658,2.1661,2.165,2.1656,2.1656,2.1642,2.1643,2.1638,2.1631,2.1629,2.1622,2.162,2.161,2.1608,2.161,2.1601,2.1608,2.16,2.1597,2.1597,2.1598,2.1623,2.163,2.1644,2.1614,2.1614,2.1615,0,2.168,2.1676,2.1682,2.1671,2.1671,2.1673,2.1668,2.1667,2.166,2.1654,2.1651,2.1641,2.1641,2.1631,2.1631,2.1625,2.1623,2.1619,2.1619,2.1618,2.1606,2.1622,2.1648,2.165,2.1618,2.1617,2.1617,0,2.1703,2.1699,2.1702,2.1699,2.1687,2.1689,2.1684,2.1676,2.1674,2.167,2.1668,2.1664,2.1661,2.1657,2.1646,2.164,2.1647,2.1636,2.1642,2.1643,2.1644,2.1644,2.167,2.1644,2.1644,2.1644,2.1644,0,2.1724,2.1728,2.1712,2.1713,2.1717,2.1704,2.1708,2.1702,2.1695,2.1695,2.1682,2.1682,2.1667,2.1665,2.1657,2.1658,2.1657,2.1652,2.1649,2.1653,2.1653,2.1651,2.1649,2.1645,2.1645,2.1645,2.1644,0,2.175,2.1739,2.1741,2.173,2.1727,2.173,2.172,2.1721,2.1713,2.1713,2.1712,2.1699,2.1696,2.1685,2.1679,2.1673,2.1676,2.1672,2.1679,2.1677,2.1684,2.1683,2.1709,2.1711,2.1684,2.1684,2.1685,0,2.1764,2.1766,2.1755,2.1754,2.175,2.1748,2.1746,2.1733,2.1731,2.1723,2.1724,2.172,2.1716,2.1712,2.1702,2.1697,2.1692,2.1701,2.1691,2.1694,2.1691,2.1691,2.169,2.1703,2.1704,2.1704,2.1704,0,2.1789,2.1783,2.1781,2.1776,2.1774,2.1769,2.1764,2.1764,2.175,2.1748,2.1745,2.1742,2.1735,2.1731,2.1725,2.1719,2.1709,2.1707,2.1708,2.1711,2.1715,2.1712,2.1684,2.1707,2.1707,2.1706,2.1706,2.1706,2.1809,2.181,2.1802,2.1799,2.1794,2.1789,2.1789,2.1781,2.1778,2.1772,2.1765,2.1762,2.1754,2.1744,2.1739,2.1736,2.1731,2.1733,2.1733,2.1733,2.1735,2.1716,2.1735,2.1735,2.1735,2.1735,2.1735,0,2.1833,2.1827,2.1824,2.1817,2.1815,2.1806,2.18,2.1798,2.1796,2.1789,2.1785,2.1781,2.1777,2.1766,2.1761,2.176,2.1755,2.1759,2.1759,2.1757,2.174,2.174,2.1763,2.1763,2.1763,2.1763,2.1763,2.1763,2.1845,2.1846,2.184,2.1838,2.1832,2.1829,2.1826,2.1822,2.1816,2.1812,2.1808,2.1802,2.1793,2.1787,2.1782,2.1779,2.1777,2.1782,2.1777,2.1761,2.1759,2.1756,2.1755,2.1782,2.1782,2.1794,2.1794,2.1794]}]]